{"data":{"norad_id":48295,"epoch":"2026-05-25T02:33:16.327008Z","epoch_age_seconds":65742,"freshness":"FRESH","line1":"1 48295U 21036V   26145.10643897  .00000394  00000+0  24466-4 0  9997","line2":"2 48295  53.1620  80.1141 0001526  92.2858 267.8318 15.31696171280117","mean_motion":15.31696171,"eccentricity":0.0001526,"inclination_deg":53.162,"raan_deg":80.1141,"arg_perigee_deg":92.2858,"mean_anomaly_deg":267.8318,"bstar":2.4466e-5,"rev_number":28011,"period_min":94.013422979302,"perigee_km":469.70626892792,"apogee_km":471.79654967044,"semimajor_km":6848.8884092992,"source":"CELESTRAK","updated_at":"2026-05-25T13:38:16.675434Z"}}